,,Stat6,,Stat2,,Stat8,,Stat9,,Stat10,,Wind1,,Wind1,
time,status,PA1M_AVG,status,PR1M_SUM,status,RH1M_AVG,status,SR1M_AVG,status,TA1M_AVG,status,W1dAve1m,status,W1sAve1m,
2004-07-21, 00:00:00,VALID,918.415,VALID,0,VALID,98.2353,VALID,0.0509425,VALID,19.512,VALID,1,VALID,0.022017,
2004-07-21, 00:01:00,VALID,918.369,VALID,0,VALID,98.3332,VALID,0.0509425,VALID,19.4854,VALID,1,VALID,0,
2004-07-21, 00:02:00,VALID,918.348,VALID,0,VALID,98.4158,VALID,0,VALID,19.4861,VALID,1,VALID,0,
2004-07-21, 00:03:00,VALID,918.325,VALID,0,VALID,98.1704,VALID,0.0509425,VALID,19.4377,VALID,1,VALID,0,
2004-07-21, 00:04:00,VALID,918.323,VALID,0,VALID,98.1615,VALID,0.0339617,VALID,19.3952,VALID,1,VALID,0.00441576,
2004-07-21, 00:05:00,VALID,918.308,VALID,0,VALID,98.1348,VALID,0.0339617,VALID,19.3796,VALID,346,VALID,0.311384,
2004-07-21, 00:06:00,VALID,918.293,VALID,0,VALID,97.8423,VALID,0.0509425,VALID,19.3505,VALID,333,VALID,0.468932,
2004-07-21, 00:07:00,VALID,918.271,VALID,0,VALID,97.6084,VALID,0.0509425,VALID,19.3284,VALID,345,VALID,0.425347,
2004-07-21, 00:08:00,VALID,918.253,VALID,0,VALID,97.4214,VALID,0.0339617,VALID,19.2924,VALID,347,VALID,0.261133,
2004-07-21, 00:09:00,VALID,918.217,VALID,0,VALID,97.5372,VALID,0.0509425,VALID,19.2926,VALID,321,VALID,0.473837,
2004-07-21, 00:10:00,VALID,918.191,VALID,0,VALID,97.6313,VALID,0.101885,VALID,19.2762,VALID,294,VALID,0.278409,
2004-07-21, 00:11:00,VALID,918.159,VALID,0,VALID,97.3464,VALID,0.0679233,VALID,19.2119,VALID,294,VALID,0.39117,
2004-07-21, 00:12:00,VALID,918.146,VALID,0,VALID,97.0285,VALID,0.0509425,VALID,19.1603,VALID,323,VALID,0.586301,
2004-07-21, 00:13:00,VALID,918.148,VALID,0,VALID,96.7157,VALID,0.0169808,VALID,19.1339,VALID,16,VALID,0.779948,
2004-07-21, 00:14:00,VALID,918.146,VALID,0,VALID,96.202,VALID,0.0509425,VALID,19.121,VALID,23,VALID,0.35404,
2004-07-21, 00:15:00,VALID,918.172,VALID,0,VALID,95.7645,VALID,0.0509425,VALID,19.0862,VALID,23,VALID,0.349746,
2004-07-21, 00:16:00,VALID,918.184,VALID,0,VALID,96.2859,VALID,0.0679233,VALID,19.089,VALID,357,VALID,0.324405,
2004-07-21, 00:17:00,VALID,918.204,VALID,0,VALID,97.4774,VALID,0.0849042,VALID,19.1861,VALID,355,VALID,0.306686,
2004-07-21, 00:18:00,VALID,918.209,VALID,0,VALID,97.3718,VALID,0.0849042,VALID,19.2117,VALID,355,VALID,0.292882,
2004-07-21, 00:19:00,VALID,918.227,VALID,0,VALID,96.7869,VALID,0.0849042,VALID,19.1632,VALID,355,VALID,0.177083,
2004-07-21, 00:20:00,VALID,918.231,VALID,0,VALID,96.1651,VALID,0.0509425,VALID,19.1213,VALID,355,VALID,0.225836,
2004-07-21, 00:21:00,VALID,918.235,VALID,0,VALID,95.7645,VALID,0.0509425,VALID,19.0835,VALID,355,VALID,0,
2004-07-21, 00:22:00,VALID,918.245,VALID,0,VALID,95.673,VALID,0.0509425,VALID,19.041,VALID,355,VALID,0.29581,
2004-07-21, 00:23:00,VALID,918.245,VALID,0,VALID,95.3958,VALID,0,VALID,19.0191,VALID,9,VALID,0.706395,
2004-07-21, 00:24:00,VALID,918.242,VALID,0,VALID,95.1147,VALID,0,VALID,18.9777,VALID,23,VALID,0.774966,
2004-07-21, 00:25:00,VALID,918.233,VALID,0,VALID,94.9418,VALID,-0.0169808,VALID,18.8967,VALID,23,VALID,0.930729,
2004-07-21, 00:26:00,VALID,918.236,VALID,0,VALID,95.275,VALID,0.0169808,VALID,18.8227,VALID,23,VALID,0.789249,
2004-07-21, 00:27:00,VALID,918.214,VALID,0,VALID,95.6018,VALID,0,VALID,18.7966,VALID,23,VALID,0.727865,
2004-07-21, 00:28:00,VALID,918.218,VALID,0,VALID,95.4606,VALID,0,VALID,18.7964,VALID,23,VALID,0.497396,
2004-07-21, 00:29:00,VALID,918.202,VALID,0,VALID,95.3093,VALID,0.0169808,VALID,18.7738,VALID,21,VALID,0.709847,
2004-07-21, 00:30:00,VALID,918.187,VALID,0,VALID,95.2292,VALID,0.0169808,VALID,18.7775,VALID,14,VALID,0.556996,
2004-07-21, 00:31:00,VALID,918.189,VALID,0,VALID,95.0715,VALID,-0.0169808,VALID,18.7551,VALID,14,VALID,0.752418,
2004-07-21, 00:32:00,VALID,918.174,VALID,0,VALID,95.2063,VALID,0,VALID,18.7355,VALID,13,VALID,0.88125,
2004-07-21, 00:33:00,VALID,918.17,VALID,0,VALID,95.2686,VALID,0,VALID,18.7424,VALID,10,VALID,0.733259,
2004-07-21, 00:34:00,VALID,918.151,VALID,0,VALID,95.1147,VALID,-0.0169808,VALID,18.7224,VALID,8,VALID,0.778942,
2004-07-21, 00:35:00,VALID,918.13,VALID,0,VALID,95.1682,VALID,0,VALID,18.7069,VALID,5,VALID,0.891335,
2004-07-21, 00:36:00,VALID,918.129,VALID,0,VALID,95.3475,VALID,-0.0169808,VALID,18.6809,VALID,355,VALID,0.940696,
2004-07-21, 00:37:00,VALID,918.107,VALID,0,VALID,95.2343,VALID,0,VALID,18.7327,VALID,3,VALID,0.685826,
2004-07-21, 00:38:00,VALID,918.097,VALID,0,VALID,94.9558,VALID,-0.0169808,VALID,18.7553,VALID,3,VALID,0.534647,
2004-07-21, 00:39:00,VALID,918.09,VALID,0,VALID,94.7129,VALID,-0.0339617,VALID,18.768,VALID,3,VALID,0.153773,
2004-07-21, 00:40:00,VALID,918.076,VALID,0,VALID,94.7523,VALID,0,VALID,18.7648,VALID,3,VALID,0.320685,
2004-07-21, 00:41:00,VALID,918.049,VALID,0,VALID,95.2991,VALID,0,VALID,18.7939,VALID,2,VALID,0.320676,
2004-07-21, 00:42:00,VALID,918.022,VALID,0,VALID,94.058,VALID,-0.0339617,VALID,18.6942,VALID,1,VALID,0.505716,
2004-07-21, 00:43:00,VALID,917.999,VALID,0,VALID,94.8312,VALID,-0.0339617,VALID,18.5875,VALID,356,VALID,0.887463,
2004-07-21, 00:44:00,VALID,917.985,VALID,0,VALID,95.4403,VALID,-0.0339617,VALID,18.5554,VALID,1,VALID,1.00017,
2004-07-21, 00:45:00,VALID,917.974,VALID,0,VALID,95.804,VALID,-0.0339617,VALID,18.5812,VALID,359,VALID,1.02639,
2004-07-21, 00:46:00,VALID,917.969,VALID,0,VALID,95.4479,VALID,-0.0169808,VALID,18.6334,VALID,2,VALID,1.08158,
2004-07-21, 00:47:00,VALID,917.953,VALID,0,VALID,94.9876,VALID,-0.0339617,VALID,18.6336,VALID,6,VALID,1.07594,
2004-07-21, 00:48:00,VALID,917.939,VALID,0,VALID,94.8172,VALID,-0.0339617,VALID,18.6006,VALID,6,VALID,0.873728,
2004-07-21, 00:49:00,VALID,917.928,VALID,0,VALID,95.1262,VALID,-0.0509425,VALID,18.5743,VALID,6,VALID,0.850347,
2004-07-21, 00:50:00,VALID,917.904,VALID,0,VALID,95.3767,VALID,0.0339617,VALID,18.5768,VALID,3,VALID,0.819568,
2004-07-21, 00:51:00,VALID,917.867,VALID,0,VALID,95.3551,VALID,0.0679233,VALID,18.5764,VALID,335,VALID,0.226749,
2004-07-21, 00:52:00,VALID,917.833,VALID,0,VALID,95.7671,VALID,0.0509425,VALID,18.6001,VALID,298,VALID,0.321948,
2004-07-21, 00:53:00,VALID,917.78,VALID,0,VALID,97.0565,VALID,-0.0339617,VALID,18.6947,VALID,242,VALID,0.376674,
2004-07-21, 00:54:00,VALID,917.753,VALID,0,VALID,97.5257,VALID,0,VALID,18.7655,VALID,245,VALID,0.268532,
2004-07-21, 00:55:00,VALID,917.725,VALID,0,VALID,97.6287,VALID,-0.0169808,VALID,18.7948,VALID,245,VALID,0.00279018,
2004-07-21, 00:56:00,VALID,917.714,VALID,0,VALID,96.8225,VALID,-0.0339617,VALID,18.7392,VALID,245,VALID,0,
2004-07-21, 00:57:00,VALID,917.698,VALID,0,VALID,96.0049,VALID,-0.0169808,VALID,18.6336,VALID,245,VALID,0.212358,
2004-07-21, 00:58:00,VALID,917.709,VALID,0,VALID,95.8472,VALID,-0.0169808,VALID,18.5432,VALID,245,VALID,0.0657393,
2004-07-21, 00:59:00,VALID,917.722,VALID,0,VALID,95.6717,VALID,-0.0509425,VALID,18.4816,VALID,246,VALID,0.335405,
2004-07-21, 01:00:00,VALID,917.707,VALID,0,VALID,95.0385,VALID,-0.0169808,VALID,18.3686,VALID,18,VALID,0.661902,
2004-07-21, 01:01:00,VALID,917.7,VALID,0,VALID,95.6247,VALID,-0.0679233,VALID,18.2621,VALID,36,VALID,0.841704,
2004-07-21, 01:02:00,VALID,917.683,VALID,0,VALID,96.2249,VALID,-0.0339617,VALID,18.1876,VALID,24,VALID,0.991257,
2004-07-21, 01:03:00,VALID,917.678,VALID,0,VALID,96.9916,VALID,-0.0509425,VALID,18.1523,VALID,15,VALID,1.17769,
2004-07-21, 01:04:00,VALID,917.672,VALID,0,VALID,97.0247,VALID,-0.0509425,VALID,18.1459,VALID,12,VALID,1.06473,
2004-07-21, 01:05:00,VALID,917.672,VALID,0,VALID,96.703,VALID,-0.0509425,VALID,18.1267,VALID,12,VALID,1.05543,
2004-07-21, 01:06:00,VALID,917.678,VALID,0,VALID,96.5847,VALID,-0.0339617,VALID,18.0841,VALID,15,VALID,1.23838,
2004-07-21, 01:07:00,VALID,917.692,VALID,0,VALID,96.2579,VALID,-0.0169808,VALID,18.0396,VALID,16,VALID,1.38336,
2004-07-21, 01:08:00,VALID,917.687,VALID,0,VALID,96.7602,VALID,-0.0169808,VALID,18.0652,VALID,14,VALID,1.51617,
2004-07-21, 01:09:00,VALID,917.669,VALID,0,VALID,96.53,VALID,0,VALID,18.1551,VALID,13,VALID,1.78391,
2004-07-21, 01:10:00,VALID,917.663,VALID,0,VALID,96.1231,VALID,-0.0169808,VALID,18.2526,VALID,13,VALID,1.60501,
2004-07-21, 01:11:00,VALID,917.664,VALID,0,VALID,95.8154,VALID,-0.0339617,VALID,18.3209,VALID,5,VALID,1.43659,
2004-07-21, 01:12:00,VALID,917.648,VALID,0,VALID,96.0405,VALID,-0.0339617,VALID,18.4078,VALID,1,VALID,1.43125,
2004-07-21, 01:13:00,VALID,917.633,VALID,0,VALID,95.617,VALID,-0.0339617,VALID,18.4982,VALID,4,VALID,1.38858,
2004-07-21, 01:14:00,VALID,917.608,VALID,0,VALID,95.1033,VALID,-0.0169808,VALID,18.5171,VALID,10,VALID,1.26867,
2004-07-21, 01:15:00,VALID,917.569,VALID,0,VALID,95.1109,VALID,-0.0509425,VALID,18.5434,VALID,357,VALID,1.26972,
2004-07-21, 01:16:00,VALID,917.532,VALID,0,VALID,95.0067,VALID,0,VALID,18.5723,VALID,4,VALID,1.28184,
2004-07-21, 01:17:00,VALID,917.502,VALID,0,VALID,94.7511,VALID,-0.0339617,VALID,18.5819,VALID,13,VALID,1.38499,
2004-07-21, 01:18:00,VALID,917.5,VALID,0,VALID,94.5641,VALID,-0.0679233,VALID,18.5598,VALID,12,VALID,1.19345,
2004-07-21, 01:19:00,VALID,917.501,VALID,0,VALID,94.7714,VALID,-0.0339617,VALID,18.5402,VALID,355,VALID,0.822396,
2004-07-21, 01:20:00,VALID,917.501,VALID,0,VALID,95.0474,VALID,-0.0509425,VALID,18.5596,VALID,350,VALID,1.09618,
2004-07-21, 01:21:00,VALID,917.495,VALID,0,VALID,94.8973,VALID,-0.0509425,VALID,18.6179,VALID,4,VALID,1.40997,
2004-07-21, 01:22:00,VALID,917.476,VALID,0,VALID,94.4777,VALID,0,VALID,18.6604,VALID,15,VALID,1.29036,
2004-07-21, 01:23:00,VALID,917.462,VALID,0,VALID,94.1369,VALID,-0.0169808,VALID,18.6276,VALID,12,VALID,1.23819,
2004-07-21, 01:24:00,VALID,917.435,VALID,0,VALID,94.2818,VALID,-0.0339617,VALID,18.6013,VALID,10,VALID,1.28906,
2004-07-21, 01:25:00,VALID,917.385,VALID,0,VALID,94.3645,VALID,-0.0509425,VALID,18.5856,VALID,9,VALID,1.39506,
2004-07-21, 01:26:00,VALID,917.364,VALID,0,VALID,94.4192,VALID,-0.0679233,VALID,18.5563,VALID,14,VALID,1.88472,
2004-07-21, 01:27:00,VALID,917.343,VALID,0,VALID,94.3721,VALID,-0.0339617,VALID,18.5504,VALID,9,VALID,1.4549,
2004-07-21, 01:28:00,VALID,917.33,VALID,0,VALID,94.4548,VALID,-0.0169808,VALID,18.5243,VALID,5,VALID,1.54878,
2004-07-21, 01:29:00,VALID,917.332,VALID,0,VALID,94.6519,VALID,-0.0339617,VALID,18.5079,VALID,6,VALID,1.22773,
2004-07-21, 01:30:00,VALID,917.327,VALID,0,VALID,94.8337,VALID,-0.0509425,VALID,18.5211,VALID,5,VALID,1.15207,
2004-07-21, 01:31:00,VALID,917.313,VALID,0,VALID,94.7345,VALID,-0.0339617,VALID,18.5432,VALID,357,VALID,1.09109,
2004-07-21, 01:32:00,VALID,917.29,VALID,0,VALID,94.7574,VALID,-0.0339617,VALID,18.563,VALID,359,VALID,1.23177,
2004-07-21, 01:33:00,VALID,917.258,VALID,0,VALID,94.526,VALID,0,VALID,18.5951,VALID,6,VALID,1.10076,
2004-07-21, 01:34:00,VALID,917.223,VALID,0,VALID,94.2666,VALID,-0.0169808,VALID,18.6343,VALID,13,VALID,1.27431,
2004-07-21, 01:35:00,VALID,917.191,VALID,0,VALID,94.0809,VALID,-0.0169808,VALID,18.6599,VALID,2,VALID,1.23549,
2004-07-21, 01:36:00,VALID,917.198,VALID,0,VALID,93.8953,VALID,0,VALID,18.6788,VALID,2,VALID,1.03307,
2004-07-21, 01:37:00,VALID,917.199,VALID,0,VALID,93.8241,VALID,-0.0169808,VALID,18.6917,VALID,6,VALID,0.966025,
2004-07-21, 01:38:00,VALID,917.185,VALID,0,VALID,93.7223,VALID,-0.0339617,VALID,18.7242,VALID,12,VALID,1.18182,
2004-07-21, 01:39:00,VALID,917.197,VALID,0,VALID,93.2544,VALID,-0.0169808,VALID,18.7279,VALID,7,VALID,1.04506,
2004-07-21, 01:40:00,VALID,917.19,VALID,0,VALID,93.4286,VALID,-0.0679233,VALID,18.686,VALID,7,VALID,1.07608,
2004-07-21, 01:41:00,VALID,917.182,VALID,0,VALID,93.6562,VALID,-0.0169808,VALID,18.6659,VALID,3,VALID,0.999619,
2004-07-21, 01:42:00,VALID,917.179,VALID,0,VALID,93.6842,VALID,-0.0339617,VALID,18.6689,VALID,352,VALID,0.668648,
2004-07-21, 01:43:00,VALID,917.167,VALID,0,VALID,93.7096,VALID,-0.0169808,VALID,18.6788,VALID,353,VALID,0.847996,
2004-07-21, 01:44:00,VALID,917.134,VALID,0,VALID,93.5825,VALID,-0.0169808,VALID,18.682,VALID,351,VALID,1.00249,
2004-07-21, 01:45:00,VALID,917.114,VALID,0,VALID,93.5634,VALID,-0.0339617,VALID,18.6885,VALID,352,VALID,0.854936,
2004-07-21, 01:46:00,VALID,917.087,VALID,0,VALID,93.5647,VALID,-0.101885,VALID,18.6887,VALID,356,VALID,0.75436,
2004-07-21, 01:47:00,VALID,917.053,VALID,0,VALID,93.5519,VALID,-0.0849042,VALID,18.6984,VALID,358,VALID,0.828887,
2004-07-21, 01:48:00,VALID,917.028,VALID,0,VALID,93.4464,VALID,-0.0169808,VALID,18.6954,VALID,357,VALID,0.621528,
2004-07-21, 01:49:00,VALID,917.008,VALID,0,VALID,93.4668,VALID,-0.0169808,VALID,18.712,VALID,357,VALID,0.636632,
2004-07-21, 01:50:00,VALID,917.001,VALID,0,VALID,93.2607,VALID,-0.0509425,VALID,18.7081,VALID,357,VALID,0.287348,
2004-07-21, 01:51:00,VALID,916.987,VALID,0,VALID,92.8195,VALID,-0.0169808,VALID,18.6627,VALID,349,VALID,0.267485,
2004-07-21, 01:52:00,VALID,916.96,VALID,0,VALID,93.1336,VALID,-0.0509425,VALID,18.6371,VALID,245,VALID,0.403525,
2004-07-21, 01:53:00,VALID,916.96,VALID,0,VALID,92.9696,VALID,0,VALID,18.5889,VALID,249,VALID,0.0919744,
2004-07-21, 01:54:00,VALID,916.942,VALID,0,VALID,93.8711,VALID,-0.0169808,VALID,18.5563,VALID,249,VALID,0.293155,
2004-07-21, 01:55:00,VALID,916.921,VALID,0,VALID,94.8871,VALID,-0.0509425,VALID,18.5628,VALID,249,VALID,0.29524,
2004-07-21, 01:56:00,VALID,916.914,VALID,0,VALID,95.3754,VALID,-0.0509425,VALID,18.5951,VALID,249,VALID,0.210574,
2004-07-21, 01:57:00,VALID,916.906,VALID,0,VALID,95.4581,VALID,-0.0339617,VALID,18.5956,VALID,249,VALID,0.357599,
2004-07-21, 01:58:00,VALID,916.912,VALID,0,VALID,95.9031,VALID,-0.0169808,VALID,18.5919,VALID,249,VALID,0.424782,
2004-07-21, 01:59:00,VALID,916.9,VALID,0,VALID,95.9972,VALID,-0.0339617,VALID,18.5819,VALID,249,VALID,0.277798,
2004-07-21, 02:00:00,VALID,916.903,VALID,0,VALID,95.8701,VALID,-0.0169808,VALID,18.5531,VALID,249,VALID,0.175967,
2004-07-21, 02:01:00,VALID,916.909,VALID,0,VALID,95.837,VALID,0,VALID,18.5238,VALID,249,VALID,0.00260417,
2004-07-21, 02:02:00,VALID,916.921,VALID,0,VALID,95.9464,VALID,0,VALID,18.498,VALID,249,VALID,0.00093006,
2004-07-21, 02:03:00,VALID,916.935,VALID,0,VALID,96.1702,VALID,-0.0169808,VALID,18.492,VALID,249,VALID,0,
2004-07-21, 02:04:00,VALID,916.953,VALID,0,VALID,96.2973,VALID,-0.0339617,VALID,18.4657,VALID,249,VALID,0,
2004-07-21, 02:05:00,VALID,916.965,VALID,0,VALID,96.4016,VALID,-0.0509425,VALID,18.4535,VALID,249,VALID,0.0232558,
2004-07-21, 02:06:00,VALID,916.96,VALID,0,VALID,96.4983,VALID,-0.0169808,VALID,18.4175,VALID,249,VALID,0.0651677,
2004-07-21, 02:07:00,VALID,916.93,VALID,0,VALID,96.5148,VALID,-0.0339617,VALID,18.4076,VALID,227,VALID,0.335574,
2004-07-21, 02:08:00,VALID,916.888,VALID,0,VALID,96.1893,VALID,-0.0339617,VALID,18.3654,VALID,197,VALID,0.353051,
2004-07-21, 02:09:00,VALID,916.853,VALID,0,VALID,96.1002,VALID,0,VALID,18.2907,VALID,182,VALID,0.176258,
2004-07-21, 02:10:00,VALID,916.856,VALID,0,VALID,96.3317,VALID,-0.0169808,VALID,18.2492,VALID,171,VALID,0.250601,
2004-07-21, 02:11:00,VALID,916.863,VALID,0,VALID,96.558,VALID,0,VALID,18.2204,VALID,171,VALID,0.0479651,
2004-07-21, 02:12:00,VALID,916.85,VALID,0,VALID,96.5428,VALID,0,VALID,18.1814,VALID,171,VALID,0,
2004-07-21, 02:13:00,VALID,916.842,VALID,0,VALID,96.0621,VALID,0,VALID,18.1205,VALID,171,VALID,0,
2004-07-21, 02:14:00,VALID,916.825,VALID,0,VALID,95.6425,VALID,0,VALID,18.0036,VALID,171,VALID,0,
2004-07-21, 02:15:00,VALID,916.839,VALID,0,VALID,96.1842,VALID,-0.0169808,VALID,17.972,VALID,171,VALID,0.00117188,
2004-07-21, 02:16:00,VALID,916.861,VALID,0,VALID,96.0672,VALID,-0.0339617,VALID,17.8975,VALID,171,VALID,0.290082,
2004-07-21, 02:17:00,VALID,916.88,VALID,0,VALID,97.2676,VALID,0,VALID,17.9139,VALID,64,VALID,0.481712,
2004-07-21, 02:18:00,VALID,916.89,VALID,0,VALID,97.6046,VALID,0,VALID,17.9623,VALID,38,VALID,0.148619,
2004-07-21, 02:19:00,VALID,916.877,VALID,0,VALID,97.616,VALID,0,VALID,17.9363,VALID,38,VALID,0.208984,
2004-07-21, 02:20:00,VALID,916.845,VALID,0,VALID,97.6046,VALID,0,VALID,17.9135,VALID,27,VALID,0.698153,
2004-07-21, 02:21:00,VALID,916.801,VALID,0,VALID,98.1526,VALID,0,VALID,17.9137,VALID,20,VALID,0.726758,
2004-07-21, 02:22:00,VALID,916.797,VALID,0,VALID,97.8538,VALID,0,VALID,17.862,VALID,17,VALID,0.921148,
2004-07-21, 02:23:00,VALID,916.778,VALID,0,VALID,98.4196,VALID,0,VALID,17.8427,VALID,11,VALID,1.20185,
2004-07-21, 02:24:00,VALID,916.763,VALID,0,VALID,98.4298,VALID,0,VALID,17.8194,VALID,16,VALID,0.881424,
2004-07-21, 02:25:00,VALID,916.729,VALID,0,VALID,98.6193,VALID,-0.0339617,VALID,17.8302,VALID,20,VALID,0.918786,
2004-07-21, 02:26:00,VALID,916.675,VALID,0,VALID,99.6137,VALID,0,VALID,17.9559,VALID,23,VALID,1.07049,
2004-07-21, 02:27:00,VALID,916.639,VALID,0,VALID,99.9392,VALID,-0.0169808,VALID,18.0619,VALID,28,VALID,0.87207,
2004-07-21, 02:28:00,VALID,916.655,VALID,0,VALID,99.7866,VALID,0,VALID,18.1041,VALID,27,VALID,0.958854,
2004-07-21, 02:29:00,VALID,916.679,VALID,0,VALID,99.5895,VALID,-0.0169808,VALID,18.1233,VALID,14,VALID,0.832122,
2004-07-21, 02:30:00,VALID,916.712,VALID,0,VALID,99.6353,VALID,0,VALID,18.1201,VALID,15,VALID,0.672247,
2004-07-21, 02:31:00,VALID,916.719,VALID,0,VALID,99.9875,VALID,0,VALID,18.2337,VALID,15,VALID,0.44112,
2004-07-21, 02:32:00,VALID,916.716,VALID,0,VALID,100,VALID,-0.0169808,VALID,18.3177,VALID,15,VALID,0.382241,
2004-07-21, 02:33:00,VALID,916.689,VALID,0,VALID,100,VALID,0,VALID,18.3589,VALID,15,VALID,0.343164,
2004-07-21, 02:34:00,VALID,916.649,VALID,0,VALID,100,VALID,0,VALID,18.4009,VALID,26,VALID,0.620916,
2004-07-21, 02:35:00,VALID,916.639,VALID,0,VALID,100,VALID,-0.0169808,VALID,18.427,VALID,31,VALID,0.593572,
2004-07-21, 02:36:00,VALID,916.681,VALID,0,VALID,100,VALID,0,VALID,18.4436,VALID,31,VALID,0.416295,
2004-07-21, 02:37:00,VALID,916.719,VALID,0,VALID,99.9288,VALID,0,VALID,18.42,VALID,31,VALID,0.226744,
2004-07-21, 02:38:00,VALID,916.725,VALID,0,VALID,99.6111,VALID,0,VALID,18.3942,VALID,31,VALID,0.336957,
2004-07-21, 02:39:00,VALID,916.722,VALID,0,VALID,99.0809,VALID,0,VALID,18.2911,VALID,31,VALID,0.304129,
2004-07-21, 02:40:00,VALID,916.73,VALID,0,VALID,99.0287,VALID,0,VALID,18.2397,VALID,31,VALID,0.421528,
2004-07-21, 02:41:00,VALID,916.702,VALID,0,VALID,99.1101,VALID,0,VALID,18.2236,VALID,31,VALID,0.430069,
2004-07-21, 02:42:00,VALID,916.695,VALID,0,VALID,99.2831,VALID,-0.0169808,VALID,18.23,VALID,31,VALID,0.625381,
2004-07-21, 02:43:00,VALID,916.707,VALID,0,VALID,99.2475,VALID,-0.0169808,VALID,18.234,VALID,31,VALID,0.644345,
2004-07-21, 02:44:00,VALID,916.713,VALID,0,VALID,99.2258,VALID,0,VALID,18.2174,VALID,31,VALID,0.818359,
2004-07-21, 02:45:00,VALID,916.734,VALID,0,VALID,99.1674,VALID,0,VALID,18.2014,VALID,31,VALID,0.694931,
2004-07-21, 02:46:00,VALID,916.758,VALID,0,VALID,99.1559,VALID,-0.0169808,VALID,18.1913,VALID,35,VALID,0.206395,
2004-07-21, 02:47:00,VALID,916.762,VALID,0,VALID,99.0656,VALID,-0.0169808,VALID,18.1823,VALID,105,VALID,0.303052,
2004-07-21, 02:48:00,VALID,916.748,VALID,0,VALID,99.2945,VALID,-0.0509425,VALID,18.195,VALID,158,VALID,0.692951,
2004-07-21, 02:49:00,VALID,916.697,VALID,0,VALID,99.409,VALID,0,VALID,18.2231,VALID,150,VALID,0.857372,
2004-07-21, 02:50:00,VALID,916.68,VALID,0,VALID,99.442,VALID,-0.0339617,VALID,18.2561,VALID,147,VALID,0.566592,
2004-07-21, 02:51:00,VALID,916.644,VALID,0,VALID,99.4039,VALID,0,VALID,18.272,VALID,155,VALID,0.341463,
2004-07-21, 02:52:00,VALID,916.642,VALID,0,VALID,99.2055,VALID,-0.0169808,VALID,18.2881,VALID,148,VALID,0.109553,
2004-07-21, 02:53:00,VALID,916.651,VALID,0,VALID,98.9512,VALID,0.0509425,VALID,18.3038,VALID,108,VALID,0.340625,
2004-07-21, 02:54:00,VALID,916.668,VALID,0,VALID,98.4718,VALID,0,VALID,18.2782,VALID,28,VALID,0.567645,
2004-07-21, 02:55:00,VALID,916.663,VALID,0,VALID,98.2556,VALID,0.0339617,VALID,18.2519,VALID,40,VALID,0.860328,
2004-07-21, 02:56:00,VALID,916.676,VALID,0,VALID,98.5443,VALID,0.0169808,VALID,18.3107,VALID,29,VALID,0.97061,
2004-07-21, 02:57:00,VALID,916.68,VALID,0,VALID,98.2912,VALID,0,VALID,18.323,VALID,21,VALID,0.443496,
2004-07-21, 02:58:00,VALID,916.66,VALID,0,VALID,98.1056,VALID,0.0339617,VALID,18.3264,VALID,21,VALID,0.0947027,
2004-07-21, 02:59:00,VALID,916.629,VALID,0,VALID,98.1374,VALID,0.0169808,VALID,18.3396,VALID,27,VALID,0.270389,
2004-07-21, 03:00:00,VALID,916.622,VALID,0,VALID,98.2276,VALID,0,VALID,18.3785,VALID,37,VALID,0.122713,
2004-07-21, 03:01:00,VALID,916.608,VALID,0,VALID,98.075,VALID,0.0169808,VALID,18.4037,VALID,37,VALID,0,
2004-07-21, 03:02:00,VALID,916.604,VALID,0,VALID,98.0344,VALID,0.0169808,VALID,18.4399,VALID,36,VALID,0.122569,
2004-07-21, 03:03:00,VALID,916.6,VALID,0,VALID,98.0623,VALID,0.0169808,VALID,18.4752,VALID,36,VALID,0.208031,
2004-07-21, 03:04:00,VALID,916.623,VALID,0,VALID,97.9873,VALID,0.0169808,VALID,18.5365,VALID,36,VALID,0.411519,
2004-07-21, 03:05:00,VALID,916.65,VALID,0,VALID,97.7228,VALID,0.0339617,VALID,18.5882,VALID,34,VALID,0.387962,
2004-07-21, 03:06:00,VALID,916.689,VALID,0,VALID,97.3261,VALID,0,VALID,18.6232,VALID,32,VALID,0.384766,
2004-07-21, 03:07:00,VALID,916.705,VALID,0,VALID,96.6407,VALID,0,VALID,18.6078,VALID,27,VALID,0.601753,
2004-07-21, 03:08:00,VALID,916.701,VALID,0,VALID,96.3749,VALID,-0.101885,VALID,18.6055,VALID,20,VALID,0.523785,
2004-07-21, 03:09:00,VALID,916.682,VALID,0,VALID,95.6793,VALID,-0.0849042,VALID,18.5218,VALID,20,VALID,0.622514,
2004-07-21, 03:10:00,VALID,916.639,VALID,0,VALID,96.0176,VALID,-0.101885,VALID,18.4284,VALID,25,VALID,0.85665,
2004-07-21, 03:11:00,VALID,916.615,VALID,0,VALID,96.5428,VALID,-0.0849042,VALID,18.3825,VALID,31,VALID,0.85119,
2004-07-21, 03:12:00,VALID,916.606,VALID,0,VALID,96.6941,VALID,-0.0679233,VALID,18.3661,VALID,26,VALID,0.768043,
2004-07-21, 03:13:00,VALID,916.598,VALID,0,VALID,96.8136,VALID,-0.0679233,VALID,18.3636,VALID,29,VALID,0.583274,
2004-07-21, 03:14:00,VALID,916.582,VALID,0,VALID,96.998,VALID,-0.0679233,VALID,18.3499,VALID,30,VALID,0.434956,
2004-07-21, 03:15:00,VALID,916.562,VALID,0,VALID,97.1455,VALID,-0.0339617,VALID,18.3725,VALID,30,VALID,0.300195,
2004-07-21, 03:16:00,VALID,916.545,VALID,0,VALID,97.0476,VALID,-0.0849042,VALID,18.3984,VALID,30,VALID,0.308866,
2004-07-21, 03:17:00,VALID,916.524,VALID,0,VALID,96.9586,VALID,-0.0679233,VALID,18.4081,VALID,30,VALID,0.161133,
2004-07-21, 03:18:00,VALID,916.5,VALID,0,VALID,96.7691,VALID,-0.0509425,VALID,18.4175,VALID,30,VALID,0.319957,
2004-07-21, 03:19:00,VALID,916.48,VALID,0,VALID,96.4601,VALID,-0.0509425,VALID,18.415,VALID,30,VALID,0.292151,
2004-07-21, 03:20:00,VALID,916.475,VALID,0,VALID,96.5072,VALID,-0.0849042,VALID,18.3755,VALID,30,VALID,0.0727796,
2004-07-21, 03:21:00,VALID,916.472,VALID,0,VALID,96.6165,VALID,-0.0849042,VALID,18.3859,VALID,30,VALID,0,
2004-07-21, 03:22:00,VALID,916.485,VALID,0,VALID,96.7399,VALID,-0.0849042,VALID,18.3951,VALID,30,VALID,0.183594,
2004-07-21, 03:23:00,VALID,916.512,VALID,0,VALID,96.7615,VALID,-0.0509425,VALID,18.4148,VALID,289,VALID,0.507622,
2004-07-21, 03:24:00,VALID,916.505,VALID,0,VALID,96.8327,VALID,-0.0679233,VALID,18.415,VALID,270,VALID,0.38316,
2004-07-21, 03:25:00,VALID,916.512,VALID,0,VALID,97.4748,VALID,-0.101885,VALID,18.4726,VALID,309,VALID,0.577398,
2004-07-21, 03:26:00,VALID,916.496,VALID,0,VALID,97.3617,VALID,-0.0849042,VALID,18.4955,VALID,360,VALID,0.768643,
2004-07-21, 03:27:00,VALID,916.528,VALID,0,VALID,97.0629,VALID,-0.0509425,VALID,18.5211,VALID,298,VALID,0.547965,
2004-07-21, 03:28:00,VALID,916.529,VALID,0,VALID,97.1595,VALID,-0.0509425,VALID,18.5767,VALID,238,VALID,0.563388,
2004-07-21, 03:29:00,VALID,916.547,VALID,0,VALID,97.4799,VALID,-0.0849042,VALID,18.6085,VALID,236,VALID,0.970348,
2004-07-21, 03:30:00,VALID,916.535,VALID,0,VALID,97.719,VALID,-0.0169808,VALID,18.5891,VALID,240,VALID,0.835193,
2004-07-21, 03:31:00,VALID,916.521,VALID,0,VALID,97.8805,VALID,-0.0849042,VALID,18.5598,VALID,294,VALID,0.592416,
2004-07-21, 03:32:00,VALID,916.479,VALID,0,VALID,97.7813,VALID,-0.0339617,VALID,18.5206,VALID,25,VALID,1.19731,
2004-07-21, 03:33:00,VALID,916.459,VALID,0,VALID,97.6592,VALID,-0.0509425,VALID,18.4821,VALID,25,VALID,1.45149,
2004-07-21, 03:34:00,VALID,916.456,VALID,0,VALID,97.4469,VALID,-0.0679233,VALID,18.4731,VALID,15,VALID,1.3879,